Location: Blackwater Beach
(38.5801°N, 75.1577°W)
Time: 02:37:09
(UTC+00:00)

Resurs 01 Rocket - Visible Passes

Search period start: 16 May 2026 00:00
Search period end: 26 May 2026 00:00
Orbit: 626 x 636 km, 97.7° (Epoch: 15 May)

Date Brightness Start Highest point End Pass type
(mag) Time Alt. Az. Time Alt. Az. Time Alt. Az.
17 May 3.9 00:42:27 10° SSW 00:46:02 25° W 00:49:39 10° NW visible
18 May 4.4 01:04:22 10° SW 01:06:51 15° W 01:09:20 10° WNW visible
22 May 4.2 00:49:41 10° SW 00:52:58 21° W 00:56:17 10° NW visible
23 May 4.6 01:12:03 10° WSW 01:13:47 12° W 01:15:33 10° WNW visible
